Precipitable_Water
0.58 0.55 0.51 0.50 0.49 0.49 0.50 0.50 0.49 0.48 0.48 0.47 0.46 0.47 0.48 0.48 0.50 0.50 0.50 0.49 0.49 0.49 0.49 0.48 0.47 0.47 0.46 0.46 0.44 0.43 0.42 0.33 0.29 0.37 0.31 0.33 0.34 0.37 0.37 0.39 0.37 0.30 0.24 0.22 0.21 0.22 0.20 0.21 0.20 0.21 0.20 0.19 0.19 0.18 0.24 0.22 0.23 0.22 0.18 0.17 0.17 0.18 0.16 0.19 0.18 0.17 0.20 0.21 0.23 0.21 0.23 0.20 0.21 0.22 0.25 0.29 0.29 0.27 0.28 0.31 0.33 0.40 0.47 0.49 0.53 0.58 0.57 0.52
0.58 0.57 0.53 0.49 0.50 0.49 0.49 0.50 0.49 0.48 0.48 0.48 0.48 0.47 0.47 0.49 0.49 0.49 0.48 0.49 0.49 0.49 0.48 0.48 0.47 0.46 0.46 0.45 0.44 0.42 0.38 0.33 0.27 0.32 0.41 0.46 0.40 0.33 0.31 0.31 0.29 0.25 0.20 0.18 0.18 0.19 0.20 0.20 0.19 0.19 0.18 0.17 0.22 0.18 0.22 0.21 0.21 0.19 0.18 0.17 0.14 0.17 0.18 0.18 0.19 0.21 0.18 0.18 0.22 0.23 0.24 0.22 0.22 0.23 0.25 0.22 0.22 0.24 0.24 0.30 0.30 0.35 0.42 0.49 0.53 0.54 0.48 0.47
0.59 0.57 0.54 0.50 0.49 0.49 0.49 0.49 0.48 0.49 0.48 0.47 0.48 0.48 0.47 0.48 0.49 0.48 0.49 0.48 0.48 0.48 0.47 0.47 0.46 0.45 0.45 0.44 0.42 0.41 0.39 0.27 0.32 0.27 0.41 0.40 0.32 0.30 0.28 0.25 0.23 0.21 0.17 0.17 0.22 0.23 0.20 0.20 0.18 0.17 0.17 0.18 0.21 0.18 0.18 0.22 0.22 0.19 0.19 0.15 0.13 0.16 0.22 0.19 0.22 0.23 0.23 0.23 0.23 0.23 0.23 0.22 0.22 0.23 0.25 0.18 0.20 0.24 0.23 0.25 0.25 0.29 0.32 0.40 0.42 0.46 0.43 0.42
0.60 0.58 0.56 0.52 0.49 0.48 0.48 0.48 0.48 0.48 0.47 0.46 0.47 0.47 0.47 0.46 0.47 0.46 0.47 0.46 0.46 0.46 0.45 0.45 0.44 0.43 0.43 0.42 0.42 0.42 0.37 0.36 0.28 0.44 0.38 0.37 0.32 0.27 0.24 0.20 0.20 0.20 0.19 0.22 0.26 0.29 0.26 0.20 0.18 0.17 0.18 0.18 0.21 0.20 0.18 0.22 0.21 0.20 0.16 0.16 0.17 0.18 0.20 0.21 0.24 0.25 0.25 0.25 0.23 0.22 0.22 0.20 0.22 0.22 0.22 0.18 0.20 0.24 0.25 0.28 0.26 0.28 0.30 0.39 0.42 0.41 0.42 0.42
0.60 0.58 0.55 0.52 0.49 0.48 0.48 0.47 0.47 0.47 0.48 0.48 0.47 0.46 0.46 0.46 0.45 0.45 0.45 0.45 0.44 0.44 0.42 0.42 0.42 0.42 0.41 0.42 0.40 0.44 0.42 0.43 0.29 0.33 0.33 0.29 0.27 0.22 0.21 0.23 0.22 0.23 0.23 0.26 0.27 0.26 0.24 0.20 0.18 0.18 0.19 0.18 0.21 0.19 0.19 0.21 0.21 0.19 0.16 0.14 0.21 0.21 0.22 0.24 0.25 0.25 0.25 0.25 0.22 0.22 0.19 0.18 0.23 0.23 0.23 0.20 0.21 0.25 0.27 0.28 0.32 0.34 0.34 0.43 0.42 0.42 0.40 0.41
0.59 0.57 0.56 0.53 0.50 0.47 0.47 0.47 0.46 0.47 0.47 0.47 0.47 0.47 0.45 0.45 0.45 0.44 0.44 0.44 0.43 0.42 0.42 0.41 0.41 0.41 0.42 0.41 0.42 0.41 0.47 0.18 0.31 0.31 0.31 0.29 0.23 0.23 0.24 0.25 0.25 0.24 0.25 0.25 0.26 0.23 0.21 0.21 0.21 0.18 0.17 0.19 0.20 0.18 0.19 0.21 0.22 0.17 0.17 0.17 0.19 0.21 0.23 0.26 0.25 0.25 0.25 0.23 0.21 0.20 0.20 0.18 0.22 0.22 0.21 0.22 0.24 0.26 0.30 0.32 0.35 0.36 0.41 0.49 0.46 0.44 0.42 0.43
0.58 0.57 0.56 0.53 0.51 0.47 0.46 0.46 0.47 0.47 0.46 0.45 0.45 0.45 0.45 0.44 0.43 0.43 0.43 0.42 0.42 0.41 0.41 0.40 0.41 0.42 0.41 0.41 0.42 0.45 0.39 0.44 0.31 0.31 0.32 0.28 0.24 0.24 0.26 0.27 0.27 0.24 0.23 0.24 0.25 0.20 0.18 0.21 0.22 0.20 0.18 0.19 0.21 0.21 0.20 0.18 0.21 0.18 0.18 0.20 0.19 0.20 0.24 0.25 0.24 0.24 0.24 0.23 0.20 0.21 0.22 0.19 0.20 0.18 0.20 0.20 0.24 0.25 0.29 0.32 0.36 0.42 0.47 0.51 0.46 0.46 0.43 0.45
0.58 0.56 0.55 0.54 0.51 0.49 0.46 0.45 0.46 0.46 0.46 0.45 0.43 0.43 0.44 0.43 0.43 0.44 0.44 0.43 0.41 0.41 0.40 0.41 0.41 0.43 0.43 0.36 0.37 0.38 0.38 0.43 0.30 0.33 0.30 0.25 0.25 0.26 0.30 0.28 0.27 0.25 0.25 0.27 0.27 0.24 0.20 0.20 0.18 0.20 0.18 0.18 0.21 0.21 0.21 0.17 0.18 0.18 0.17 0.20 0.22 0.19 0.23 0.23 0.23 0.20 0.18 0.19 0.20 0.22 0.21 0.20 0.21 0.20 0.21 0.19 0.22 0.24 0.27 0.29 0.36 0.42 0.46 0.48 0.44 0.44 0.44 0.48
0.58 0.56 0.54 0.52 0.50 0.48 0.47 0.45 0.44 0.45 0.46 0.45 0.43 0.43 0.43 0.43 0.43 0.43 0.41 0.41 0.41 0.40 0.40 0.42 0.42 0.44 0.46 0.42 0.41 0.41 0.43 0.39 0.37 0.35 0.28 0.24 0.27 0.29 0.31 0.28 0.28 0.30 0.30 0.31 0.32 0.27 0.22 0.21 0.21 0.19 0.19 0.18 0.21 0.19 0.20 0.17 0.16 0.17 0.18 0.20 0.22 0.22 0.21 0.22 0.21 0.20 0.17 0.18 0.20 0.19 0.19 0.21 0.22 0.22 0.21 0.21 0.22 0.25 0.25 0.26 0.32 0.41 0.43 0.45 0.44 0.45 0.43 0.48
0.57 0.56 0.54 0.52 0.50 0.48 0.46 0.47 0.46 0.45 0.45 0.45 0.44 0.43 0.42 0.42 0.41 0.41 0.40 0.40 0.41 0.41 0.41 0.43 0.46 0.46 0.44 0.44 0.45 0.40 0.32 0.41 0.39 0.35 0.27 0.28 0.33 0.32 0.41 0.48 0.35 0.35 0.33 0.29 0.28 0.28 0.23 0.23 0.21 0.22 0.22 0.20 0.21 0.19 0.20 0.19 0.20 0.21 0.17 0.17 0.21 0.22 0.21 0.20 0.18 0.18 0.17 0.15 0.17 0.16 0.17 0.18 0.20 0.20 0.18 0.21 0.24 0.25 0.24 0.23 0.27 0.36 0.42 0.43 0.44 0.45 0.43 0.47
0.56 0.55 0.54 0.52 0.49 0.49 0.50 0.50 0.50 0.49 0.46 0.46 0.44 0.43 0.42 0.42 0.41 0.41 0.42 0.41 0.41 0.41 0.43 0.44 0.49 0.49 0.45 0.52 0.48 0.40 0.42 0.38 0.39 0.35 0.31 0.36 0.33 0.34 0.37 0.33 0.40 0.30 0.31 0.30 0.24 0.24 0.25 0.24 0.25 0.24 0.20 0.20 0.20 0.19 0.20 0.20 0.20 0.20 0.21 0.17 0.19 0.22 0.21 0.21 0.18 0.17 0.18 0.16 0.18 0.17 0.16 0.17 0.19 0.19 0.17 0.18 0.20 0.24 0.22 0.21 0.24 0.30 0.37 0.41 0.43 0.44 0.45 0.48
0.54 0.54 0.53 0.53 0.54 0.56 0.57 0.58 0.57 0.55 0.53 0.50 0.48 0.46 0.44 0.42 0.41 0.41 0.42 0.42 0.41 0.42 0.44 0.49 0.51 0.51 0.48 0.46 0.45 0.40 0.40 0.32 0.35 0.33 0.31 0.29 0.28 0.31 0.31 0.30 0.29 0.29 0.29 0.28 0.24 0.25 0.27 0.28 0.27 0.23 0.18 0.21 0.17 0.19 0.19 0.21 0.20 0.20 0.22 0.19 0.20 0.20 0.19 0.20 0.17 0.17 0.19 0.16 0.18 0.18 0.15 0.14 0.15 0.15 0.17 0.16 0.20 0.24 0.22 0.20 0.21 0.25 0.31 0.37 0.42 0.42 0.46 0.48
0.52 0.52 0.55 0.59 0.62 0.64 0.64 0.64 0.63 0.61 0.58 0.55 0.52 0.50 0.46 0.44 0.42 0.42 0.43 0.42 0.43 0.45 0.47 0.51 0.51 0.51 0.47 0.38 0.49 0.42 0.40 0.35 0.32 0.31 0.29 0.28 0.29 0.30 0.29 0.29 0.28 0.29 0.30 0.31 0.33 0.29 0.28 0.27 0.26 0.22 0.22 0.20 0.19 0.16 0.20 0.19 0.19 0.19 0.19 0.19 0.18 0.18 0.17 0.18 0.19 0.18 0.17 0.17 0.19 0.18 0.11 0.11 0.13 0.15 0.16 0.18 0.21 0.21 0.20 0.19 0.21 0.24 0.29 0.35 0.41 0.41 0.46 0.50
0.52 0.55 0.59 0.64 0.67 0.67 0.66 0.65 0.64 0.63 0.61 0.58 0.56 0.53 0.49 0.46 0.44 0.43 0.44 0.43 0.46 0.48 0.49 0.51 0.53 0.46 0.48 0.41 0.34 0.38 0.40 0.38 0.33 0.29 0.27 0.28 0.26 0.27 0.28 0.28 0.29 0.29 0.30 0.32 0.31 0.33 0.30 0.27 0.25 0.24 0.24 0.21 0.19 0.22 0.19 0.19 0.19 0.15 0.17 0.18 0.14 0.15 0.15 0.19 0.20 0.21 0.17 0.18 0.19 0.18 0.11 0.12 0.14 0.17 0.19 0.21 0.22 0.20 0.19 0.19 0.21 0.23 0.28 0.33 0.40 0.40 0.44 0.50
0.55 0.58 0.63 0.65 0.65 0.65 0.66 0.66 0.65 0.64 0.63 0.61 0.58 0.56 0.52 0.46 0.45 0.44 0.46 0.43 0.45 0.50 0.52 0.54 0.51 0.44 0.39 0.47 0.39 0.42 0.37 0.35 0.31 0.28 0.28 0.26 0.25 0.25 0.25 0.28 0.29 0.30 0.30 0.29 0.27 0.29 0.28 0.27 0.23 0.21 0.19 0.21 0.21 0.19 0.16 0.16 0.17 0.16 0.14 0.13 0.15 0.13 0.14 0.19 0.23 0.21 0.17 0.19 0.19 0.17 0.12 0.11 0.13 0.17 0.19 0.22 0.23 0.23 0.21 0.21 0.23 0.24 0.29 0.32 0.38 0.38 0.42 0.47
0.56 0.59 0.62 0.63 0.63 0.63 0.63 0.62 0.63 0.64 0.65 0.64 0.61 0.60 0.58 0.54 0.49 0.45 0.45 0.44 0.46 0.49 0.50 0.43 0.44 0.38 0.40 0.41 0.38 0.39 0.31 0.24 0.31 0.31 0.29 0.27 0.25 0.24 0.27 0.27 0.31 0.30 0.29 0.28 0.29 0.32 0.26 0.24 0.19 0.20 0.20 0.20 0.17 0.16 0.15 0.15 0.15 0.16 0.14 0.14 0.15 0.15 0.15 0.16 0.21 0.21 0.21 0.19 0.19 0.17 0.13 0.14 0.14 0.18 0.22 0.25 0.24 0.24 0.23 0.23 0.25 0.26 0.30 0.33 0.36 0.38 0.40 0.45
0.56 0.58 0.60 0.61 0.61 0.60 0.59 0.59 0.60 0.62 0.63 0.65 0.64 0.63 0.62 0.60 0.57 0.54 0.46 0.44 0.43 0.50 0.44 0.44 0.49 0.55 0.39 0.40 0.49 0.36 0.30 0.35 0.32 0.29 0.27 0.27 0.26 0.27 0.27 0.27 0.27 0.28 0.29 0.29 0.29 0.29 0.25 0.21 0.21 0.21 0.23 0.22 0.20 0.16 0.14 0.13 0.14 0.15 0.16 0.14 0.15 0.16 0.18 0.16 0.21 0.23 0.22 0.21 0.19 0.19 0.16 0.14 0.19 0.23 0.24 0.27 0.26 0.25 0.24 0.25 0.27 0.28 0.31 0.34 0.37 0.38 0.39 0.42
0.54 0.56 0.57 0.58 0.58 0.57 0.58 0.59 0.59 0.59 0.62 0.62 0.64 0.65 0.60 0.61 0.61 0.55 0.46 0.43 0.44 0.42 0.46 0.49 0.46 0.38 0.31 0.42 0.27 0.34 0.37 0.31 0.28 0.27 0.26 0.27 0.28 0.27 0.26 0.24 0.27 0.28 0.30 0.27 0.28 0.25 0.26 0.21 0.23 0.20 0.23 0.20 0.19 0.17 0.14 0.13 0.15 0.18 0.20 0.19 0.18 0.17 0.19 0.19 0.19 0.24 0.24 0.23 0.21 0.20 0.18 0.17 0.19 0.22 0.26 0.28 0.28 0.26 0.25 0.26 0.29 0.29 0.32 0.34 0.36 0.37 0.38 0.38
0.50 0.53 0.54 0.55 0.55 0.54 0.55 0.57 0.57 0.57 0.60 0.62 0.65 0.70 0.72 0.68 0.64 0.57 0.47 0.47 0.38 0.41 0.43 0.33 0.28 0.25 0.24 0.32 0.39 0.39 0.35 0.29 0.28 0.26 0.24 0.25 0.26 0.27 0.27 0.29 0.28 0.27 0.26 0.24 0.27 0.24 0.29 0.24 0.28 0.22 0.20 0.22 0.20 0.20 0.17 0.20 0.29 0.31 0.31 0.29 0.26 0.23 0.22 0.20 0.24 0.27 0.27 0.24 0.22 0.21 0.20 0.19 0.21 0.20 0.23 0.28 0.28 0.25 0.26 0.26 0.28 0.31 0.32 0.35 0.36 0.36 0.36 0.38
0.46 0.49 0.51 0.51 0.52 0.52 0.52 0.53 0.54 0.54 0.56 0.57 0.62 0.70 0.74 0.64 0.52 0.56 0.49 0.52 0.48 0.51 0.46 0.34 0.31 0.32 0.31 0.32 0.33 0.39 0.37 0.33 0.26 0.27 0.26 0.28 0.26 0.25 0.26 0.26 0.25 0.27 0.28 0.26 0.28 0.27 0.33 0.23 0.22 0.22 0.22 0.30 0.29 0.26 0.25 0.35 0.31 0.31 0.31 0.30 0.29 0.26 0.24 0.26 0.28 0.30 0.31 0.28 0.25 0.25 0.23 0.21 0.21 0.21 0.22 0.25 0.30 0.28 0.26 0.25 0.26 0.30 0.33 0.34 0.36 0.36 0.36 0.38
0.44 0.45 0.48 0.50 0.49 0.50 0.51 0.51 0.52 0.51 0.54 0.53 0.55 0.52 0.45 0.37 0.33 0.37 0.48 0.52 0.50 0.57 0.42 0.36 0.30 0.27 0.36 0.38 0.40 0.36 0.30 0.27 0.29 0.27 0.28 0.31 0.29 0.26 0.24 0.24 0.24 0.23 0.26 0.34 0.35 0.39 0.38 0.30 0.27 0.29 0.30 0.34 0.37 0.37 0.34 0.31 0.31 0.28 0.27 0.27 0.27 0.27 0.24 0.25 0.29 0.34 0.35 0.27 0.25 0.26 0.25 0.24 0.23 0.23 0.23 0.25 0.29 0.29 0.27 0.26 0.26 0.28 0.33 0.35 0.36 0.37 0.38 0.39
0.41 0.43 0.45 0.46 0.48 0.49 0.50 0.49 0.49 0.51 0.53 0.53 0.51 0.47 0.49 0.37 0.46 0.50 0.45 0.36 0.48 0.45 0.35 0.36 0.40 0.33 0.39 0.41 0.41 0.38 0.37 0.29 0.28 0.27 0.30 0.30 0.27 0.23 0.25 0.23 0.23 0.23 0.27 0.31 0.36 0.37 0.33 0.25 0.27 0.32 0.37 0.40 0.38 0.38 0.35 0.31 0.27 0.26 0.24 0.24 0.24 0.24 0.23 0.23 0.27 0.27 0.30 0.28 0.24 0.25 0.23 0.22 0.22 0.21 0.23 0.24 0.25 0.29 0.30 0.28 0.28 0.29 0.30 0.32 0.33 0.35 0.37 0.38
0.38 0.38 0.41 0.43 0.44 0.46 0.47 0.46 0.46 0.47 0.49 0.53 0.51 0.59 0.37 0.37 0.46 0.54 0.45 0.42 0.43 0.42 0.35 0.33 0.30 0.28 0.30 0.35 0.36 0.38 0.33 0.31 0.32 0.28 0.30 0.29 0.26 0.25 0.25 0.23 0.22 0.24 0.27 0.30 0.28 0.32 0.28 0.28 0.31 0.35 0.39 0.37 0.37 0.35 0.35 0.33 0.30 0.24 0.21 0.21 0.19 0.20 0.21 0.21 0.34 0.33 0.35 0.30 0.25 0.26 0.24 0.24 0.22 0.20 0.20 0.26 0.26 0.28 0.31 0.30 0.30 0.30 0.29 0.29 0.30 0.32 0.33 0.33
0.37 0.36 0.36 0.38 0.41 0.42 0.42 0.41 0.41 0.46 0.48 0.50 0.56 0.39 0.40 0.44 0.44 0.46 0.44 0.31 0.36 0.43 0.42 0.41 0.37 0.34 0.34 0.34 0.39 0.33 0.28 0.36 0.33 0.29 0.32 0.30 0.26 0.28 0.25 0.24 0.22 0.23 0.24 0.28 0.32 0.31 0.27 0.41 0.45 0.43 0.39 0.36 0.34 0.34 0.32 0.30 0.27 0.27 0.26 0.24 0.24 0.24 0.25 0.24 0.29 0.32 0.36 0.36 0.33 0.29 0.22 0.15 0.12 0.16 0.21 0.23 0.27 0.27 0.30 0.32 0.31 0.30 0.29 0.28 0.29 0.30 0.32 0.35
0.35 0.34 0.34 0.35 0.35 0.39 0.42 0.44 0.39 0.45 0.53 0.58 0.51 0.42 0.44 0.46 0.50 0.50 0.33 0.38 0.38 0.43 0.42 0.39 0.40 0.39 0.41 0.46 0.40 0.29 0.33 0.36 0.35 0.28 0.29 0.29 0.27 0.25 0.23 0.26 0.23 0.21 0.23 0.26 0.29 0.30 0.28 0.36 0.42 0.38 0.35 0.35 0.33 0.31 0.33 0.32 0.28 0.26 0.29 0.29 0.25 0.27 0.28 0.29 0.29 0.28 0.25 0.24 0.27 0.26 0.16 0.15 0.15 0.16 0.20 0.27 0.30 0.28 0.27 0.27 0.29 0.30 0.29 0.29 0.29 0.29 0.32 0.37
0.33 0.34 0.33 0.33 0.34 0.38 0.48 0.37 0.40 0.48 0.50 0.47 0.47 0.43 0.41 0.48 0.57 0.51 0.51 0.41 0.40 0.39 0.39 0.29 0.37 0.36 0.43 0.35 0.35 0.30 0.34 0.28 0.38 0.32 0.27 0.28 0.28 0.23 0.24 0.22 0.22 0.20 0.24 0.24 0.24 0.27 0.32 0.41 0.38 0.36 0.34 0.33 0.32 0.30 0.32 0.33 0.26 0.23 0.24 0.29 0.29 0.28 0.27 0.27 0.26 0.26 0.21 0.16 0.18 0.25 0.18 0.17 0.23 0.25 0.21 0.24 0.27 0.28 0.28 0.26 0.25 0.27 0.30 0.32 0.33 0.34 0.32 0.33
0.33 0.33 0.34 0.33 0.32 0.34 0.36 0.43 0.41 0.51 0.43 0.49 0.48 0.39 0.39 0.55 0.56 0.53 0.45 0.43 0.32 0.38 0.38 0.41 0.32 0.36 0.40 0.38 0.35 0.31 0.24 0.25 0.35 0.31 0.27 0.26 0.22 0.26 0.19 0.21 0.22 0.21 0.24 0.25 0.25 0.22 0.26 0.29 0.30 0.31 0.31 0.30 0.27 0.24 0.26 0.25 0.25 0.23 0.33 0.29 0.30 0.27 0.27 0.27 0.25 0.23 0.21 0.20 0.26 0.29 0.26 0.19 0.18 0.22 0.23 0.25 0.26 0.26 0.26 0.27 0.26 0.27 0.27 0.29 0.32 0.34 0.34 0.34
0.33 0.35 0.35 0.34 0.31 0.31 0.25 0.30 0.41 0.49 0.45 0.42 0.41 0.36 0.39 0.58 0.47 0.62 0.45 0.24 0.23 0.42 0.31 0.37 0.33 0.38 0.32 0.32 0.33 0.30 0.31 0.31 0.22 0.28 0.29 0.27 0.24 0.23 0.18 0.19 0.22 0.22 0.24 0.23 0.18 0.32 0.27 0.28 0.29 0.27 0.26 0.25 0.23 0.23 0.26 0.29 0.24 0.24 0.33 0.33 0.31 0.30 0.28 0.27 0.23 0.19 0.19 0.18 0.19 0.25 0.26 0.21 0.19 0.20 0.18 0.20 0.21 0.23 0.25 0.27 0.28 0.27 0.24 0.24 0.27 0.32 0.34 0.31
0.33 0.34 0.34 0.33 0.32 0.32 0.34 0.24 0.34 0.36 0.33 0.39 0.35 0.38 0.42 0.45 0.46 0.33 0.30 0.19 0.35 0.31 0.45 0.29 0.44 0.35 0.30 0.31 0.28 0.27 0.28 0.30 0.23 0.28 0.30 0.27 0.24 0.24 0.19 0.21 0.21 0.23 0.25 0.24 0.20 0.25 0.28 0.27 0.33 0.30 0.26 0.24 0.22 0.23 0.26 0.27 0.25 0.29 0.28 0.28 0.31 0.31 0.26 0.24 0.20 0.19 0.20 0.20 0.16 0.18 0.25 0.21 0.18 0.20 0.22 0.26 0.19 0.19 0.26 0.30 0.32 0.31 0.27 0.22 0.23 0.25 0.27 0.30
0.34 0.33 0.33 0.32 0.42 0.44 0.41 0.43 0.38 0.39 0.38 0.36 0.37 0.37 0.40 0.45 0.44 0.38 0.29 0.18 0.34 0.28 0.32 0.35 0.30 0.31 0.33 0.28 0.29 0.29 0.22 0.26 0.25 0.28 0.28 0.21 0.23 0.22 0.22 0.25 0.22 0.22 0.21 0.24 0.22 0.24 0.29 0.29 0.33 0.27 0.24 0.23 0.22 0.24 0.24 0.25 0.28 0.32 0.31 0.29 0.26 0.23 0.20 0.20 0.20 0.20 0.20 0.16 0.16 0.18 0.20 0.18 0.14 0.17 0.19 0.22 0.23 0.25 0.30 0.30 0.29 0.31 0.31 0.28 0.25 0.27 0.30 0.34
0.34 0.32 0.31 0.36 0.42 0.46 0.49 0.45 0.47 0.47 0.38 0.41 0.36 0.36 0.43 0.49 0.35 0.22 0.17 0.29 0.32 0.30 0.34 0.29 0.29 0.33 0.28 0.26 0.29 0.34 0.31 0.30 0.28 0.29 0.24 0.23 0.23 0.22 0.21 0.19 0.20 0.19 0.19 0.21 0.21 0.22 0.21 0.24 0.25 0.23 0.23 0.23 0.21 0.22 0.28 0.30 0.27 0.25 0.22 0.19 0.19 0.20 0.22 0.21 0.22 0.24 0.17 0.15 0.18 0.22 0.22 0.24 0.19 0.20 0.21 0.23 0.28 0.30 0.31 0.27 0.28 0.32 0.35 0.33 0.31 0.31 0.32 0.33
0.33 0.33 0.33 0.33 0.34 0.43 0.43 0.44 0.50 0.46 0.42 0.41 0.37 0.36 0.40 0.27 0.37 0.21 0.19 0.30 0.13 0.32 0.28 0.30 0.31 0.29 0.29 0.30 0.26 0.28 0.30 0.30 0.30 0.29 0.25 0.23 0.22 0.22 0.21 0.17 0.21 0.15 0.15 0.17 0.19 0.25 0.23 0.23 0.25 0.27 0.24 0.15 0.17 0.18 0.21 0.26 0.25 0.20 0.19 0.19 0.16 0.16 0.19 0.17 0.21 0.17 0.16 0.16 0.22 0.26 0.25 0.22 0.19 0.21 0.27 0.28 0.27 0.31 0.32 0.28 0.24 0.25 0.29 0.34 0.34 0.33 0.34 0.34
0.36 0.37 0.43 0.39 0.37 0.42 0.43 0.41 0.40 0.41 0.43 0.40 0.33 0.41 0.36 0.27 0.14 0.19 0.21 0.22 0.21 0.29 0.28 0.24 0.30 0.30 0.26 0.25 0.23 0.24 0.27 0.23 0.32 0.31 0.30 0.28 0.25 0.25 0.26 0.24 0.23 0.22 0.18 0.24 0.23 0.25 0.25 0.28 0.27 0.27 0.27 0.26 0.19 0.16 0.17 0.19 0.23 0.23 0.18 0.17 0.16 0.14 0.14 0.14 0.16 0.19 0.20 0.22 0.27 0.26 0.31 0.23 0.25 0.25 0.28 0.30 0.31 0.28 0.30 0.33 0.29 0.24 0.28 0.34 0.35 0.35 0.34 0.35
0.38 0.39 0.39 0.44 0.41 0.46 0.38 0.41 0.45 0.42 0.36 0.35 0.36 0.36 0.35 0.20 0.12 0.20 0.19 0.18 0.21 0.28 0.24 0.18 0.18 0.22 0.20 0.15 0.17 0.18 0.19 0.27 0.25 0.25 0.27 0.26 0.26 0.25 0.27 0.28 0.26 0.24 0.23 0.22 0.21 0.24 0.20 0.22 0.25 0.27 0.25 0.28 0.26 0.23 0.22 0.23 0.25 0.26 0.28 0.24 0.21 0.20 0.18 0.16 0.19 0.18 0.19 0.21 0.24 0.28 0.24 0.21 0.21 0.24 0.33 0.34 0.31 0.31 0.29 0.31 0.31 0.29 0.30 0.36 0.37 0.35 0.34 0.34
0.38 0.39 0.42 0.47 0.54 0.51 0.44 0.44 0.44 0.45 0.39 0.37 0.36 0.31 0.21 0.21 0.21 0.21 0.23 0.26 0.26 0.25 0.18 0.22 0.19 0.17 0.16 0.15 0.13 0.13 0.16 0.16 0.18 0.20 0.23 0.23 0.20 0.20 0.21 0.24 0.28 0.29 0.28 0.23 0.25 0.24 0.22 0.21 0.26 0.30 0.29 0.30 0.27 0.29 0.30 0.25 0.23 0.24 0.25 0.27 0.25 0.23 0.27 0.20 0.21 0.21 0.20 0.21 0.20 0.22 0.24 0.27 0.25 0.31 0.33 0.32 0.31 0.31 0.28 0.26 0.30 0.30 0.31 0.36 0.39 0.36 0.32 0.34
0.47 0.57 0.62 0.61 0.45 0.42 0.42 0.47 0.46 0.44 0.37 0.34 0.29 0.25 0.21 0.23 0.20 0.23 0.21 0.25 0.23 0.19 0.21 0.15 0.11 0.11 0.13 0.12 0.13 0.15 0.22 0.19 0.20 0.18 0.19 0.19 0.19 0.18 0.21 0.23 0.25 0.29 0.27 0.23 0.25 0.21 0.22 0.19 0.26 0.27 0.27 0.27 0.29 0.33 0.32 0.30 0.19 0.23 0.22 0.19 0.21 0.28 0.27 0.25 0.26 0.26 0.25 0.23 0.19 0.23 0.24 0.24 0.28 0.28 0.29 0.28 0.27 0.28 0.29 0.28 0.27 0.31 0.31 0.32 0.32 0.34 0.31 0.28
0.47 0.63 0.62 0.48 0.47 0.42 0.43 0.45 0.46 0.35 0.33 0.35 0.27 0.20 0.27 0.23 0.22 0.22 0.24 0.21 0.17 0.14 0.14 0.12 0.13 0.15 0.17 0.17 0.21 0.20 0.25 0.29 0.26 0.20 0.16 0.20 0.18 0.19 0.19 0.21 0.23 0.31 0.31 0.26 0.22 0.25 0.19 0.17 0.23 0.22 0.22 0.25 0.30 0.31 0.29 0.28 0.25 0.23 0.20 0.21 0.25 0.25 0.24 0.24 0.21 0.23 0.22 0.20 0.20 0.23 0.21 0.21 0.22 0.18 0.24 0.25 0.28 0.29 0.29 0.29 0.31 0.30 0.31 0.32 0.33 0.35 0.33 0.30
0.53 0.59 0.51 0.56 0.54 0.50 0.44 0.46 0.40 0.38 0.36 0.34 0.28 0.28 0.33 0.26 0.33 0.29 0.26 0.20 0.15 0.16 0.15 0.16 0.16 0.17 0.15 0.17 0.18 0.19 0.21 0.21 0.23 0.22 0.19 0.21 0.18 0.23 0.22 0.24 0.29 0.29 0.31 0.32 0.27 0.25 0.22 0.14 0.15 0.18 0.19 0.21 0.24 0.24 0.22 0.24 0.25 0.21 0.19 0.23 0.19 0.17 0.17 0.20 0.19 0.15 0.15 0.16 0.17 0.18 0.20 0.20 0.21 0.20 0.23 0.24 0.24 0.26 0.30 0.30 0.31 0.33 0.34 0.32 0.34 0.35 0.36 0.35
0.48 0.54 0.52 0.60 0.62 0.51 0.45 0.44 0.38 0.44 0.38 0.32 0.30 0.27 0.35 0.32 0.33 0.28 0.24 0.19 0.17 0.17 0.15 0.15 0.14 0.18 0.21 0.20 0.20 0.21 0.21 0.18 0.21 0.21 0.19 0.22 0.17 0.27 0.23 0.26 0.26 0.33 0.34 0.32 0.27 0.26 0.25 0.17 0.16 0.20 0.19 0.22 0.21 0.19 0.14 0.16 0.22 0.23 0.25 0.23 0.24 0.20 0.17 0.15 0.17 0.17 0.17 0.14 0.15 0.14 0.16 0.15 0.18 0.20 0.23 0.23 0.24 0.24 0.25 0.30 0.32 0.31 0.35 0.36 0.35 0.35 0.36 0.37
0.45 0.45 0.44 0.60 0.56 0.46 0.39 0.34 0.47 0.43 0.38 0.30 0.32 0.28 0.27 0.23 0.26 0.29 0.27 0.22 0.16 0.15 0.18 0.17 0.20 0.18 0.20 0.20 0.21 0.20 0.22 0.20 0.19 0.18 0.18 0.19 0.17 0.25 0.20 0.29 0.27 0.29 0.34 0.35 0.29 0.30 0.22 0.25 0.15 0.19 0.25 0.24 0.19 0.21 0.16 0.17 0.17 0.20 0.21 0.20 0.23 0.24 0.27 0.25 0.23 0.20 0.18 0.16 0.17 0.16 0.13 0.16 0.20 0.26 0.23 0.22 0.25 0.27 0.29 0.32 0.35 0.36 0.36 0.37 0.38 0.38 0.38 0.39
0.50 0.39 0.45 0.54 0.42 0.29 0.26 0.36 0.39 0.37 0.34 0.29 0.25 0.29 0.32 0.28 0.26 0.20 0.21 0.27 0.22 0.20 0.16 0.15 0.16 0.15 0.15 0.15 0.16 0.20 0.19 0.19 0.20 0.19 0.20 0.19 0.18 0.16 0.28 0.31 0.32 0.27 0.29 0.28 0.25 0.28 0.23 0.22 0.16 0.16 0.17 0.15 0.15 0.19 0.17 0.18 0.19 0.22 0.24 0.23 0.24 0.25 0.24 0.23 0.24 0.31 0.29 0.22 0.18 0.17 0.15 0.19 0.23 0.28 0.29 0.30 0.33 0.33 0.33 0.33 0.33 0.35 0.37 0.38 0.41 0.44 0.42 0.39
0.33 0.30 0.38 0.38 0.26 0.24 0.23 0.20 0.27 0.41 0.32 0.27 0.30 0.30 0.23 0.23 0.18 0.16 0.20 0.26 0.24 0.21 0.23 0.20 0.21 0.20 0.18 0.17 0.17 0.17 0.16 0.15 0.17 0.18 0.19 0.15 0.18 0.18 0.31 0.33 0.30 0.32 0.26 0.23 0.25 0.35 0.28 0.25 0.19 0.15 0.17 0.18 0.20 0.23 0.25 0.26 0.26 0.25 0.26 0.23 0.25 0.25 0.25 0.22 0.17 0.19 0.26 0.24 0.25 0.23 0.21 0.21 0.30 0.32 0.30 0.30 0.35 0.35 0.35 0.36 0.35 0.40 0.44 0.45 0.42 0.46 0.51 0.43
0.24 0.24 0.34 0.34 0.33 0.27 0.25 0.20 0.26 0.28 0.30 0.37 0.40 0.32 0.26 0.23 0.20 0.22 0.20 0.20 0.19 0.22 0.20 0.20 0.20 0.18 0.22 0.22 0.22 0.21 0.22 0.19 0.18 0.16 0.16 0.18 0.19 0.30 0.31 0.33 0.31 0.29 0.27 0.24 0.22 0.33 0.26 0.17 0.13 0.13 0.14 0.15 0.15 0.16 0.17 0.17 0.17 0.17 0.17 0.19 0.19 0.18 0.19 0.18 0.19 0.20 0.20 0.21 0.21 0.21 0.19 0.17 0.23 0.30 0.31 0.37 0.35 0.35 0.37 0.37 0.38 0.38 0.39 0.40 0.44 0.44 0.46 0.54
0.26 0.32 0.34 0.35 0.32 0.28 0.22 0.22 0.19 0.18 0.19 0.25 0.26 0.26 0.28 0.25 0.23 0.20 0.18 0.20 0.22 0.23 0.21 0.21 0.21 0.23 0.19 0.19 0.18 0.17 0.20 0.14 0.16 0.14 0.14 0.17 0.17 0.31 0.30 0.28 0.30 0.26 0.25 0.30 0.23 0.33 0.19 0.23 0.20 0.15 0.14 0.14 0.15 0.17 0.18 0.20 0.21 0.20 0.19 0.20 0.22 0.21 0.21 0.24 0.25 0.27 0.21 0.21 0.21 0.20 0.15 0.17 0.22 0.31 0.33 0.34 0.36 0.36 0.36 0.38 0.40 0.38 0.41 0.42 0.44 0.46 0.45 0.46
0.32 0.31 0.34 0.27 0.27 0.23 0.19 0.21 0.17 0.16 0.16 0.15 0.17 0.18 0.19 0.18 0.24 0.29 0.23 0.19 0.20 0.17 0.19 0.19 0.21 0.23 0.21 0.23 0.22 0.20 0.19 0.18 0.17 0.19 0.19 0.20 0.21 0.28 0.27 0.27 0.27 0.25 0.29 0.34 0.31 0.31 0.24 0.23 0.20 0.12 0.10 0.08 0.07 0.08 0.11 0.15 0.19 0.19 0.20 0.21 0.22 0.21 0.22 0.22 0.19 0.22 0.21 0.21 0.23 0.23 0.21 0.23 0.25 0.28 0.31 0.31 0.31 0.31 0.35 0.38 0.40 0.42 0.40 0.38 0.39 0.43 0.45 0.45
0.23 0.16 0.24 0.22 0.22 0.20 0.27 0.28 0.23 0.22 0.18 0.19 0.18 0.17 0.16 0.17 0.20 0.23 0.25 0.23 0.23 0.19 0.17 0.18 0.19 0.18 0.16 0.18 0.18 0.17 0.17 0.21 0.19 0.18 0.18 0.18 0.20 0.23 0.22 0.26 0.27 0.25 0.33 0.30 0.27 0.26 0.21 0.21 0.19 0.16 0.13 0.11 0.12 0.14 0.17 0.18 0.16 0.15 0.17 0.18 0.18 0.20 0.22 0.22 0.21 0.19 0.17 0.19 0.20 0.22 0.23 0.23 0.22 0.21 0.21 0.23 0.24 0.26 0.28 0.30 0.31 0.32 0.34 0.34 0.34 0.35 0.41 0.46
0.25 0.25 0.23 0.17 0.15 0.25 0.24 0.24 0.26 0.24 0.18 0.21 0.15 0.16 0.15 0.20 0.22 0.19 0.28 0.19 0.23 0.26 0.25 0.25 0.23 0.21 0.21 0.21 0.22 0.21 0.21 0.19 0.21 0.23 0.23 0.23 0.24 0.24 0.27 0.27 0.28 0.30 0.32 0.26 0.27 0.24 0.19 0.14 0.13 0.14 0.13 0.13 0.13 0.12 0.13 0.14 0.13 0.13 0.13 0.13 0.15 0.16 0.17 0.18 0.16 0.15 0.19 0.18 0.15 0.16 0.17 0.18 0.17 0.16 0.16 0.17 0.19 0.21 0.23 0.24 0.24 0.23 0.23 0.24 0.24 0.25 0.27 0.34
0.20 0.23 0.24 0.27 0.17 0.14 0.19 0.21 0.25 0.19 0.16 0.17 0.15 0.20 0.19 0.20 0.22 0.19 0.23 0.26 0.29 0.32 0.24 0.23 0.23 0.23 0.23 0.23 0.23 0.19 0.20 0.21 0.24 0.23 0.25 0.24 0.24 0.25 0.23 0.24 0.23 0.26 0.27 0.25 0.29 0.25 0.21 0.16 0.17 0.17 0.15 0.17 0.18 0.18 0.19 0.18 0.18 0.17 0.16 0.15 0.13 0.13 0.14 0.14 0.16 0.18 0.18 0.16 0.14 0.14 0.14 0.14 0.13 0.13 0.12 0.13 0.17 0.20 0.22 0.22 0.21 0.19 0.19 0.21 0.22 0.22 0.20 0.20
0.27 0.21 0.30 0.34 0.20 0.19 0.20 0.22 0.23 0.20 0.18 0.19 0.19 0.20 0.19 0.19 0.20 0.25 0.26 0.27 0.30 0.29 0.30 0.22 0.23 0.25 0.24 0.23 0.23 0.22 0.24 0.21 0.21 0.25 0.23 0.24 0.24 0.25 0.24 0.26 0.28 0.29 0.29 0.27 0.27 0.25 0.21 0.18 0.20 0.21 0.18 0.18 0.20 0.20 0.21 0.20 0.19 0.18 0.16 0.15 0.14 0.15 0.16 0.18 0.17 0.16 0.16 0.16 0.16 0.15 0.14 0.14 0.15 0.14 0.14 0.16 0.19 0.20 0.19 0.19 0.19 0.19 0.18 0.19 0.21 0.22 0.22 0.21
0.23 0.21 0.20 0.21 0.21 0.20 0.23 0.29 0.28 0.24 0.22 0.28 0.24 0.25 0.23 0.24 0.26 0.28 0.27 0.26 0.25 0.27 0.31 0.26 0.25 0.26 0.26 0.25 0.22 0.18 0.23 0.26 0.31 0.26 0.31 0.29 0.27 0.28 0.26 0.26 0.25 0.27 0.28 0.23 0.23 0.25 0.23 0.20 0.23 0.22 0.18 0.16 0.19 0.22 0.22 0.21 0.18 0.14 0.11 0.10 0.09 0.10 0.11 0.11 0.11 0.11 0.12 0.13 0.13 0.14 0.14 0.13 0.13 0.15 0.18 0.18 0.16 0.16 0.17 0.17 0.18 0.20 0.22 0.22 0.22 0.23 0.24 0.24
0.32 0.38 0.27 0.21 0.20 0.22 0.24 0.26 0.25 0.24 0.24 0.23 0.22 0.26 0.29 0.28 0.25 0.27 0.27 0.31 0.28 0.24 0.24 0.22 0.26 0.26 0.29 0.28 0.26 0.26 0.28 0.31 0.30 0.31 0.32 0.31 0.26 0.29 0.26 0.25 0.27 0.24 0.25 0.24 0.26 0.23 0.22 0.19 0.21 0.21 0.17 0.14 0.18 0.18 0.17 0.17 0.17 0.15 0.12 0.12 0.14 0.15 0.12 0.11 0.11 0.12 0.11 0.10 0.11 0.13 0.12 0.11 0.13 0.16 0.17 0.16 0.16 0.16 0.17 0.19 0.20 0.22 0.24 0.25 0.24 0.24 0.24 0.27
0.36 0.45 0.41 0.34 0.25 0.28 0.24 0.28 0.27 0.27 0.24 0.28 0.30 0.31 0.29 0.27 0.25 0.24 0.21 0.25 0.25 0.23 0.22 0.24 0.27 0.26 0.25 0.24 0.24 0.26 0.31 0.32 0.32 0.32 0.33 0.34 0.34 0.31 0.29 0.27 0.26 0.23 0.22 0.21 0.22 0.21 0.22 0.21 0.19 0.19 0.15 0.12 0.16 0.19 0.17 0.17 0.15 0.11 0.10 0.13 0.15 0.13 0.13 0.14 0.15 0.14 0.14 0.14 0.14 0.12 0.12 0.15 0.18 0.21 0.20 0.21 0.22 0.22 0.23 0.26 0.31 0.28 0.25 0.25 0.25 0.28 0.31 0.30
Wind_Speed
11 11 10 10 10 9 9 9 9 9 9 9 10 10 10 10 10 11 11 12 12 12 12 13 13 13 14 14 14 14 15 15 15 16 18 17 15 14 14 15 16 17 17 17 18 18 18 19 19 19 18 18 18 18 18 19 19 18 17 17 17 16 16 16 14 13 13 11 12 15 16 16 16 17 15 14 15 13 14 13 11 11 11 11 11 12 12 12
10 10 10 9 9 8 8 8 8 8 8 8 9 9 9 9 9 10 10 10 11 11 11 12 12 12 13 13 13 13 14 14 15 17 17 15 14 14 14 15 16 16 16 16 17 17 17 17 17 17 17 17 17 17 18 18 19 18 17 17 17 16 15 16 14 11 12 12 15 16 16 17 16 17 16 17 17 15 15 15 14 13 13 13 12 13 13 13
10 9 9 9 8 8 8 7 7 7 7 7 8 8 8 8 8 9 9 9 10 10 10 11 11 11 12 12 12 12 12 13 15 16 14 13 13 14 14 15 15 15 15 16 16 16 16 16 16 16 16 16 16 16 16 16 17 18 17 17 17 16 15 17 15 11 11 10 12 15 15 16 16 16 15 17 18 16 16 16 16 16 16 16 14 13 13 13
10 9 9 9 8 8 7 7 7 7 6 7 7 7 7 7 8 8 8 8 9 9 9 9 10 10 10 10 11 10 11 12 13 12 11 12 12 12 13 13 13 13 14 15 15 15 15 16 16 16 16 16 15 16 16 15 16 17 18 17 16 14 14 15 16 15 15 12 10 12 13 14 15 15 14 16 17 16 17 18 18 17 17 17 15 14 14 14
9 9 9 8 8 8 7 7 7 6 6 6 6 7 7 7 7 7 8 8 8 8 8 9 9 9 9 9 9 9 9 8 7 7 8 10 10 10 11 11 11 12 13 14 14 15 15 16 16 16 16 15 15 15 16 16 15 15 17 19 18 15 12 11 14 15 16 15 11 11 12 12 14 14 13 15 15 12 13 16 18 17 16 15 14 14 14 14
9 8 8 8 8 7 7 7 7 6 6 6 6 6 6 7 7 7 7 7 8 8 8 8 8 8 9 9 8 8 8 7 5 6 8 8 8 9 9 10 10 11 12 13 14 13 13 14 15 15 15 14 15 15 16 16 16 15 15 19 19 18 14 11 12 13 15 18 15 12 13 13 15 14 13 15 13 10 9 10 12 13 14 13 13 14 14 14
8 8 8 8 7 7 7 7 7 7 6 6 6 6 6 6 7 7 7 7 7 7 7 7 7 7 8 8 8 8 9 9 6 7 7 7 8 8 8 9 9 10 11 12 12 12 12 13 13 14 14 13 14 15 16 16 17 16 15 16 17 18 17 13 11 12 15 19 18 14 14 14 14 14 15 16 13 11 10 10 10 12 14 14 12 14 14 14
8 8 7 7 7 7 7 7 7 7 6 6 6 6 6 6 7 7 6 6 6 6 6 6 6 6 6 6 7 8 10 9 5 6 7 7 7 7 8 8 9 9 10 11 11 11 11 12 13 13 13 12 13 14 16 16 17 17 16 15 14 16 17 14 13 12 13 16 15 14 14 14 14 13 15 17 14 12 13 13 13 14 15 15 14 15 15 15
8 8 7 7 7 7 7 7 7 7 7 7 7 7 7 7 7 7 6 6 6 6 6 6 6 6 5 5 6 6 6 5 4 5 6 6 6 7 7 7 8 9 10 10 10 11 11 11 12 13 13 13 12 14 14 15 15 15 17 17 13 14 16 15 15 14 13 14 15 15 16 16 16 14 14 17 16 14 15 16 15 15 16 16 16 16 16 16
8 7 7 7 6 7 7 7 7 7 7 7 7 7 7 7 7 7 7 7 6 6 6 6 6 5 5 5 6 5 3 4 4 5 6 6 7 7 8 8 9 10 9 9 9 11 12 11 11 12 14 14 13 13 13 13 13 13 16 17 14 13 15 15 15 16 15 15 16 16 17 18 18 16 16 17 18 17 16 17 17 17 17 17 17 17 17 17
7 7 7 6 6 6 6 7 7 7 7 7 7 8 8 8 8 7 7 7 7 7 7 7 6 6 6 6 7 5 4 6 5 6 6 6 7 8 8 8 9 9 8 9 9 11 11 11 11 11 11 11 12 13 14 14 14 13 14 15 15 14 15 15 16 17 15 15 17 16 18 19 19 18 17 19 20 18 16 17 18 18 18 18 18 18 17 17
7 7 6 6 6 6 6 6 7 7 7 7 8 8 8 8 8 8 8 8 8 7 7 7 7 6 7 8 9 7 5 7 6 6 7 7 8 8 7 7 8 9 9 9 10 11 12 11 11 12 10 9 11 12 13 14 14 14 14 14 15 16 16 16 16 16 15 15 16 16 17 19 20 19 18 19 19 18 16 16 18 18 18 18 18 18 18 18
7 6 6 6 6 6 6 7 7 7 7 8 8 8 8 9 9 9 8 8 8 8 8 8 7 8 8 9 9 8 7 7 7 7 8 8 9 8 8 8 9 10 10 10 9 10 11 11 12 13 12 11 11 9 10 12 13 15 15 15 15 16 17 17 17 17 16 15 14 14 16 18 19 20 20 19 19 18 17 17 18 18 18 18 18 18 18 18
7 6 6 6 6 7 7 7 7 7 7 8 8 8 9 9 9 9 9 9 9 9 9 9 9 9 9 9 8 8 8 8 8 9 9 9 9 9 9 9 10 10 10 10 10 9 10 12 13 13 13 13 11 9 11 13 13 14 15 15 15 15 16 17 19 18 16 14 14 14 16 17 18 20 22 22 20 18 17 18 19 19 19 18 18 18 18 19
7 7 6 7 7 7 7 7 7 7 7 7 7 8 8 8 9 9 9 9 9 9 9 10 10 9 10 11 9 8 9 10 10 11 10 10 10 10 10 10 10 10 10 11 11 10 11 12 13 12 12 14 13 11 12 13 13 13 14 15 15 15 15 16 19 19 16 15 16 16 16 16 17 19 21 22 20 18 18 19 19 19 19 19 18 18 18 19
7 7 7 7 7 7 8 8 8 7 7 7 7 7 7 8 8 9 9 9 9 10 9 9 10 10 9 9 8 8 10 11 11 11 11 11 11 10 10 10 10 10 10 11 11 11 11 12 13 13 12 12 13 13 12 13 13 13 14 15 15 15 14 12 16 18 17 16 17 17 16 15 13 11 15 20 19 18 18 19 19 20 19 18 18 18 18 19
8 7 7 7 7 8 8 8 8 7 7 7 7 7 7 8 8 8 9 9 9 9 10 10 10 11 11 10 9 10 11 10 10 11 11 12 12 11 11 11 10 11 11 11 11 11 12 12 12 13 13 12 12 13 13 13 13 13 14 15 15 16 15 12 14 18 19 18 17 17 16 16 14 10 13 18 18 17 18 18 19 19 19 19 18 18 19 19
8 8 8 8 8 8 8 8 8 7 7 7 7 7 7 8 7 8 8 8 8 8 10 11 11 11 12 12 11 10 10 10 10 11 12 12 13 12 12 11 11 11 11 11 11 11 11 12 12 12 12 12 12 12 13 13 12 12 12 13 14 16 17 15 14 15 17 17 16 16 16 17 17 15 15 18 19 18 19 19 19 19 20 19 19 19 20 20
9 8 8 8 8 8 7 7 7 7 7 7 7 7 7 8 8 8 8 8 8 8 8 10 11 9 8 10 10 9 10 10 11 12 12 12 12 13 12 12 12 12 11 10 11 11 11 11 12 12 12 13 14 14 15 13 12 12 12 12 13 14 16 15 13 14 16 16 16 17 18 18 18 19 19 19 20 20 20 20 20 20 20 20 20 21 21 21
9 9 9 8 8 8 8 8 8 7 7 7 7 7 7 7 7 7 8 10 11 12 10 9 12 11 9 9 9 9 10 11 12 12 13 12 12 13 13 13 12 13 13 12 11 11 12 12 13 14 13 12 13 15 15 14 13 14 14 14 14 13 13 12 11 13 15 16 17 17 19 19 19 20 21 21 21 21 21 21 21 21 21 21 21 21 21 21
10 9 9 9 9 9 8 8 8 8 7 7 7 7 7 7 7 7 8 10 13 14 12 10 12 13 10 9 9 10 10 11 12 12 12 12 12 13 13 13 13 13 13 14 12 10 11 13 14 15 15 12 11 13 14 14 15 15 15 16 16 14 14 15 13 14 15 17 18 18 20 22 22 22 22 22 23 22 21 21 21 22 22 22 22 21 21 21
10 10 10 9 9 9 9 9 8 8 8 7 7 8 8 8 7 8 9 10 12 12 12 12 13 13 12 11 11 11 11 12 12 12 11 12 13 13 12 13 14 13 13 15 13 12 13 14 16 16 14 13 13 13 13 14 15 16 16 17 18 17 17 18 17 17 18 18 19 20 22 24 24 24 24 23 24 23 23 22 22 23 23 23 22 22 21 21
11 10 10 10 10 9 9 9 9 9 8 8 8 8 9 8 8 9 9 10 10 10 11 11 12 13 13 13 12 11 12 12 12 13 12 12 13 14 13 13 14 14 14 15 14 14 14 14 15 15 12 14 15 14 14 14 15 16 17 18 19 18 18 17 15 16 17 17 18 19 21 22 22 23 24 24 24 23 22 21 22 23 23 23 23 22 22 22
11 10 10 10 10 10 10 10 9 8 8 9 9 8 9 8 9 9 9 10 10 9 9 10 10 11 10 10 10 11 12 12 11 11 12 12 13 14 14 14 14 15 16 16 16 16 17 14 13 13 13 16 17 16 16 16 16 17 18 18 18 18 18 16 14 15 17 18 18 19 21 21 20 21 22 22 23 24 23 22 22 22 22 22 23 23 23 22
10 10 9 9 9 9 10 9 8 8 8 9 8 8 9 9 8 8 8 9 9 9 9 9 10 9 8 9 10 11 12 13 11 10 11 13 14 13 14 15 15 15 16 17 18 18 17 15 14 14 15 16 17 17 17 16 17 18 18 20 20 20 20 19 17 17 17 19 19 19 19 19 19 21 22 21 21 23 24 24 23 22 22 22 22 22 22 22
10 10 9 9 8 8 9 8 7 8 9 8 8 9 9 9 8 8 7 8 8 7 7 8 8 8 9 9 10 10 12 13 11 10 11 13 14 14 14 14 14 16 17 16 17 17 15 14 15 17 17 16 17 18 18 18 18 18 17 18 20 21 20 21 21 19 18 18 17 17 17 17 17 18 18 18 19 21 22 22 23 22 22 22 22 21 21 22
10 9 9 8 8 8 8 8 8 9 8 7 8 9 9 8 8 7 8 8 7 7 7 6 7 8 9 8 9 10 9 8 9 10 11 12 13 13 14 14 13 14 16 15 16 15 14 15 15 16 17 17 18 18 18 19 19 17 15 16 18 18 19 20 20 20 19 18 17 17 17 18 17 17 16 17 18 20 19 19 20 21 22 22 22 21 21 22
10 9 9 8 8 8 8 8 9 9 8 8 9 9 8 8 8 7 8 7 5 7 8 7 7 8 9 9 10 11 9 8 10 10 9 9 11 12 12 14 15 14 14 15 16 13 13 16 15 15 17 17 17 17 17 17 18 16 14 15 17 17 18 18 18 19 18 18 18 18 18 17 17 17 17 18 19 18 18 19 19 20 21 22 22 21 22 21
10 9 8 8 8 8 8 8 9 9 8 8 9 9 8 8 8 7 8 7 6 7 8 8 9 10 10 10 10 12 11 11 11 9 9 10 11 12 12 13 15 16 14 14 15 14 14 15 15 15 16 16 15 15 16 17 16 15 13 14 16 17 17 16 17 17 17 18 19 19 18 17 17 16 16 17 18 18 17 18 19 18 19 19 20 20 20 20
9 9 8 7 7 7 7 7 7 8 9 9 9 8 8 8 7 7 7 7 6 6 7 8 8 8 10 10 10 11 11 12 11 10 11 11 11 13 13 13 13 15 15 14 15 16 16 14 14 15 16 15 16 15 14 15 14 13 13 14 15 16 16 16 16 16 17 19 19 20 20 19 17 16 15 14 15 17 17 17 17 17 17 17 17 17 18 18
8 8 7 7 6 6 7 6 6 8 8 9 9 8 8 8 7 7 7 6 6 6 7 8 8 7 9 10 10 10 11 13 12 11 11 11 11 12 13 13 13 13 14 15 16 17 18 17 15 15 16 16 17 16 15 14 14 14 14 14 15 15 15 15 15 16 17 17 17 19 20 20 19 17 15 12 11 14 16 15 14 15 17 17 17 17 17 18
8 7 7 6 6 6 7 7 8 8 9 9 9 8 8 7 7 7 6 6 6 6 6 7 7 8 9 10 10 11 12 12 12 12 12 12 12 11 12 13 12 12 13 13 14 15 17 18 17 16 16 16 16 16 15 15 16 15 15 15 15 14 14 15 15 15 17 17 17 18 18 18 19 18 17 15 12 13 14 14 13 14 17 18 18 18 17 18
7 7 6 6 6 6 7 8 8 8 9 9 8 7 7 7 7 7 7 7 6 6 8 9 9 10 11 11 11 11 12 12 12 13 13 13 13 13 13 13 13 14 13 12 12 14 14 15 16 16 15 15 16 15 15 14 15 15 15 15 15 14 14 15 15 15 16 16 16 16 16 16 18 16 16 18 17 15 15 16 16 16 17 18 19 18 18 18
7 6 6 5 6 6 7 8 8 9 9 9 8 8 7 8 8 8 8 7 6 7 10 10 10 12 13 13 13 12 12 12 13 13 13 13 14 13 14 15 15 15 15 14 13 14 14 13 13 14 13 14 15 16 15 15 15 16 16 16 17 16 15 15 15 14 14 14 14 14 13 13 15 14 14 15 16 17 17 18 18 18 17 18 19 19 19 20
6 6 5 5 6 6 7 8 9 9 10 9 8 8 8 8 8 8 8 8 8 10 11 12 12 14 14 14 15 13 11 11 12 13 14 14 14 14 15 15 16 16 15 15 13 13 16 15 13 14 15 15 16 16 16 17 17 16 16 17 18 17 17 17 17 17 17 17 17 17 16 16 16 16 17 17 18 18 18 18 18 19 19 18 19 19 19 20
6 5 5 6 6 7 8 9 10 10 10 10 9 9 8 9 9 9 8 10 12 12 14 14 14 15 14 12 12 11 9 10 12 13 13 15 16 16 15 14 14 15 15 15 14 13 15 16 14 14 16 16 16 17 17 17 17 15 16 18 18 17 17 18 18 19 18 19 19 18 18 19 19 19 20 21 21 21 20 20 19 18 19 19 19 19 19 20
7 7 7 7 7 9 9 10 10 11 11 10 10 10 10 10 9 9 10 11 13 14 14 14 13 13 13 10 10 10 9 11 13 13 13 14 14 14 15 13 12 13 14 14 15 15 16 17 17 17 17 16 17 18 19 19 19 18 18 17 16 17 17 17 17 17 17 18 19 18 19 20 19 19 19 20 20 20 20 20 19 18 19 20 19 19 19 20
8 9 8 7 9 10 11 11 12 12 12 11 12 11 11 10 9 10 12 13 14 15 14 13 13 13 12 12 12 12 11 11 11 12 13 13 13 13 13 13 12 13 14 15 15 15 16 18 19 19 20 19 19 21 22 21 21 21 21 19 17 18 19 18 17 17 18 18 19 20 21 21 21 20 19 19 19 19 19 19 19 19 19 20 20 20 20 20
10 11 9 8 10 12 12 12 13 13 12 12 12 10 10 11 10 11 13 14 15 14 14 14 13 13 13 13 14 14 14 14 14 14 14 13 13 13 14 14 14 15 15 15 16 16 16 18 19 18 18 18 18 20 21 20 20 21 21 20 19 19 20 20 19 19 19 19 19 21 21 20 20 20 20 20 20 19 19 18 18 19 19 20 20 20 20 20
11 11 9 9 12 13 13 13 13 14 12 11 12 12 11 11 11 12 13 14 15 15 14 15 14 14 14 15 15 15 16 17 17 17 16 16 16 16 15 15 16 16 16 16 17 17 18 19 21 20 19 19 19 19 20 21 20 20 20 20 20 20 19 20 21 21 21 20 19 19 20 20 20 17 18 19 18 18 18 17 17 18 19 20 20 21 22 22
12 11 10 11 14 14 14 14 13 13 12 12 12 12 11 12 14 17 16 14 15 15 15 15 16 16 16 16 16 16 16 17 17 17 17 17 17 16 15 14 15 17 17 17 17 17 18 19 21 22 21 21 22 21 22 23 23 21 20 20 21 20 18 18 19 21 21 20 19 19 20 21 19 16 18 19 17 16 17 16 16 16 17 17 18 20 22 22
13 11 11 13 15 15 15 15 14 13 13 12 12 12 13 14 17 18 17 16 16 16 16 15 16 16 16 17 17 17 17 17 17 17 17 17 17 16 16 15 15 16 17 18 18 17 18 19 22 23 23 24 26 25 25 26 26 25 24 23 23 22 21 20 20 21 21 22 22 21 22 22 20 18 20 19 18 19 19 19 19 18 17 17 17 18 19 20
13 13 13 14 15 15 15 15 14 13 13 12 13 15 17 17 17 17 17 17 17 16 16 15 16 16 16 17 17 18 18 18 18 18 19 20 18 16 16 16 17 17 18 19 19 18 19 20 22 24 25 25 27 27 26 27 26 26 25 25 25 25 24 24 23 23 22 23 23 22 23 24 22 20 19 18 18 20 21 21 21 20 20 20 20 20 19 19
16 15 14 13 14 16 16 15 15 15 15 16 17 18 19 18 19 18 18 18 17 17 17 17 17 17 17 18 18 19 19 18 19 20 20 20 17 16 17 18 18 19 19 18 18 18 19 19 20 22 22 23 23 22 21 20 19 20 21 22 23 23 23 23 23 23 23 25 26 24 24 26 24 23 22 22 22 23 22 23 23 23 22 23 22 22 22 23
17 16 14 15 17 18 17 15 16 17 17 19 19 19 20 19 19 18 18 19 20 19 18 18 18 18 18 19 19 20 20 20 20 20 20 20 19 19 19 19 19 20 18 17 18 20 21 20 21 22 22 22 21 19 17 16 16 19 21 22 23 23 24 23 23 23 24 26 27 25 25 27 27 27 28 28 27 27 26 26 27 27 26 26 26 25 25 26
17 15 16 18 20 19 16 16 17 17 18 19 20 20 21 20 20 19 19 19 20 20 19 19 19 19 20 20 20 20 21 21 21 21 21 21 21 20 18 18 19 18 16 16 19 21 22 23 23 24 25 25 25 24 23 22 23 24 25 26 26 26 27 25 24 24 26 27 27 27 27 29 30 31 31 30 29 29 29 30 30 30 31 31 31 30 30 29
17 17 18 19 19 17 17 18 18 18 19 20 20 21 21 21 21 19 18 19 19 19 19 19 19 20 20 20 20 21 22 22 22 22 23 22 22 22 21 22 22 19 18 20 20 20 22 24 25 27 28 29 29 29 29 28 28 28 29 30 30 30 29 28 27 28 28 28 29 30 30 30 32 34 34 33 32 31 32 32 33 34 35 35 35 35 36 35
18 19 19 19 19 19 19 20 20 21 23 23 21 21 22 22 22 20 20 20 19 18 18 19 19 20 21 21 20 20 21 22 22 23 23 22 22 23 23 24 24 22 21 21 21 19 21 24 25 27 29 30 30 30 29 28 28 29 30 32 32 31 31 29 30 31 30 30 32 33 34 34 34 36 37 37 35 34 35 36 36 37 37 37 37 37 38 38
20 20 20 19 21 22 22 23 23 24 24 23 21 22 22 23 22 21 21 21 20 19 19 20 21 21 21 21 21 21 21 21 22 22 22 22 22 23 23 23 24 23 22 23 23 22 22 24 24 26 28 30 29 28 28 28 28 30 31 33 33 32 31 30 31 33 33 33 34 36 37 36 35 36 38 37 37 37 37 37 37 37 38 37 37 37 38 38
21 21 21 22 23 23 23 23 23 23 22 22 21 21 21 21 20 20 20 20 20 20 21 22 23 22 22 22 21 21 21 20 21 22 22 23 23 23 23 23 23 23 23 24 23 22 23 24 24 24 27 29 28 27 27 28 28 30 33 35 33 32 31 32 32 32 32 34 34 35 36 36 36 35 36 37 38 37 37 37 37 36 36 37 37 37 37 37
22 22 23 23 23 22 22 22 22 22 21 21 21 20 19 20 20 20 20 20 21 22 22 23 23 22 23 23 22 22 22 21 22 23 24 25 24 24 23 24 23 23 23 23 22 22 23 24 24 24 26 29 27 25 27 28 28 32 35 34 31 30 31 31 31 30 31 32 33 34 34 35 35 35 36 36 37 36 35 35 35 35 35 35 36 37 37 37
23 22 22 23 23 22 22 22 21 21 21 20 19 20 20 21 21 22 22 21 21 22 22 22 22 22 22 24 24 23 23 24 25 25 26 26 27 27 27 27 27 26 24 24 23 23 23 23 23 23 26 29 27 25 26 26 27 31 31 27 27 28 30 30 31 31 31 31 32 33 34 34 34 34 34 34 34 34 34 33 33 34 35 36 37 37 38 38
Wind_Direction
298 297 293 291 289 289 288 286 283 280 276 272 268 265 261 259 257 255 255 253 254 254 255 257 260 263 265 267 269 270 271 266 261 257 253 251 249 249 246 242 243 246 247 244 240 242 242 239 240 240 239 239 240 239 239 238 234 235 236 239 240 240 239 239 247 247 239 231 226 231 231 233 229 226 233 232 230 232 231 232 234 233 230 223 215 214 217 221
299 298 295 292 291 290 290 289 287 283 279 274 268 264 260 258 255 254 254 253 254 255 257 260 262 265 267 268 269 271 271 265 261 259 255 249 245 246 245 244 245 245 243 239 236 237 238 238 237 236 236 237 237 236 237 234 231 234 235 236 238 238 238 240 249 251 243 236 234 235 233 237 233 225 233 234 230 230 232 233 231 229 226 224 220 221 223 224
300 298 296 293 291 291 291 290 290 286 282 275 269 265 261 257 256 255 254 254 255 257 259 261 264 266 267 268 268 270 269 266 264 259 251 242 241 244 246 245 244 242 238 234 235 236 236 237 236 233 232 235 235 232 233 230 228 232 234 235 234 236 246 246 244 243 242 246 238 232 235 238 229 227 233 233 230 230 236 235 228 226 227 227 223 223 225 227
303 299 296 294 292 291 291 291 290 288 283 277 271 266 262 259 257 256 255 256 257 259 261 263 265 266 266 266 266 269 269 269 264 252 238 234 239 242 243 242 238 236 233 233 238 239 235 236 234 230 230 232 233 230 229 228 227 230 232 233 231 235 253 249 239 238 238 247 249 234 236 235 224 227 231 229 230 234 241 235 228 229 227 227 225 224 227 230
306 300 297 296 294 291 290 290 289 287 284 279 272 266 264 261 259 259 258 258 259 260 262 263 266 266 265 265 265 266 265 267 256 234 227 231 238 239 237 234 232 232 230 233 239 237 233 234 233 228 230 232 231 229 229 228 227 232 232 230 236 241 251 250 242 242 237 239 248 238 237 233 224 227 228 226 229 239 247 234 227 227 220 220 222 224 229 233
308 303 297 296 295 293 290 289 288 285 283 281 275 267 263 262 261 261 259 259 260 261 263 264 266 266 266 265 262 254 254 264 249 230 231 234 235 232 230 229 230 230 228 233 236 232 227 229 230 225 228 231 232 232 230 229 227 232 232 230 240 243 244 256 249 245 241 237 243 242 237 234 228 228 228 227 229 238 246 231 222 216 212 216 219 225 232 235
311 306 298 296 296 294 291 287 286 283 282 280 276 270 264 261 260 260 260 260 261 261 262 264 264 265 267 264 253 242 251 264 246 225 231 232 229 225 226 226 227 225 223 229 229 225 221 223 226 222 224 230 234 235 231 231 229 231 235 236 243 239 238 251 251 248 245 237 239 242 238 234 227 228 232 229 229 234 234 230 226 218 217 223 225 231 237 239
315 310 302 297 295 295 292 288 285 281 280 278 275 271 265 261 260 260 261 260 260 261 260 261 262 263 267 259 249 247 253 252 226 217 226 222 219 217 220 220 220 219 220 226 224 222 220 221 224 221 223 228 235 237 231 230 231 232 236 242 245 236 236 245 244 246 245 234 235 238 235 231 228 233 236 229 228 234 232 232 232 228 228 232 234 238 242 245
318 315 308 301 297 296 294 290 285 281 279 277 274 271 266 262 261 260 260 260 259 258 258 259 259 259 258 246 252 263 249 224 208 221 219 209 213 211 213 215 212 213 219 223 224 225 221 220 224 222 228 238 247 245 232 227 230 232 234 240 245 238 239 242 239 241 242 236 237 238 235 235 235 239 239 233 233 237 235 235 234 232 234 239 240 241 246 247
321 319 314 306 300 297 295 292 289 285 280 276 273 271 267 263 261 260 259 258 257 256 255 254 253 254 251 241 253 266 231 209 214 214 206 205 211 209 215 219 213 214 222 227 225 225 224 228 232 231 237 246 254 247 231 225 232 237 235 240 246 243 242 240 240 241 238 238 238 238 239 239 239 240 241 239 238 238 238 237 236 234 237 241 242 243 247 248
323 320 317 312 306 302 299 296 292 289 284 279 274 270 267 263 260 259 258 257 256 255 252 251 251 249 246 244 253 259 231 225 222 209 209 213 214 217 222 223 220 219 228 235 229 227 234 240 241 237 238 243 249 245 234 230 239 243 241 244 244 243 243 239 242 241 236 240 238 238 244 243 242 240 241 243 239 237 237 238 236 236 239 241 243 245 248 249
325 322 320 317 313 309 306 302 297 292 287 281 277 272 268 264 260 258 257 256 254 252 251 250 249 245 248 251 251 252 241 232 227 219 220 221 222 228 231 226 227 229 233 240 239 238 239 240 238 235 238 245 248 247 237 234 241 243 243 247 244 242 244 242 242 239 237 241 236 238 246 245 244 240 241 244 236 231 234 238 238 237 239 241 243 246 248 248
329 324 322 320 318 316 313 309 302 296 290 284 279 274 270 265 260 257 256 254 252 252 252 250 249 248 254 258 251 245 245 237 231 231 228 228 231 232 234 232 233 237 237 239 246 246 238 234 234 236 243 245 246 250 241 236 241 244 244 246 247 244 244 243 239 236 237 238 232 238 248 248 246 243 242 239 230 230 237 240 240 239 240 240 242 247 248 247
332 328 325 323 320 318 316 313 307 302 295 288 282 276 273 267 261 258 256 255 252 252 252 251 251 248 251 259 254 244 246 242 234 237 234 232 236 234 233 236 238 241 240 240 249 249 239 238 236 238 246 244 249 256 244 241 243 246 245 244 248 249 249 243 234 232 233 233 234 241 253 255 254 250 241 232 228 233 240 242 242 241 241 241 241 245 246 246
335 331 328 325 323 320 319 316 312 306 300 295 287 279 274 267 263 260 258 256 252 252 254 253 249 249 258 260 253 247 246 244 239 238 236 235 237 238 236 238 239 241 243 245 249 247 241 241 236 237 247 244 248 255 246 244 242 243 245 244 244 248 258 248 227 226 230 236 239 243 255 256 260 261 237 223 227 235 242 244 243 242 241 242 242 244 245 245
338 333 329 327 325 323 321 318 315 309 302 298 292 284 276 270 267 261 259 257 255 254 252 253 248 247 263 264 250 249 246 243 242 237 238 240 237 240 242 242 243 242 245 247 247 247 241 240 238 242 251 247 244 249 250 247 240 241 245 248 247 244 257 248 223 227 234 241 241 240 253 255 259 262 226 220 230 236 244 245 242 242 242 241 243 244 244 245
340 336 332 330 326 324 322 320 318 313 306 299 294 287 277 272 269 266 261 255 254 251 246 254 255 251 258 261 256 252 245 243 245 240 241 243 240 245 247 243 246 244 245 247 245 246 240 238 242 245 250 250 246 246 247 245 242 242 241 246 251 249 254 246 231 236 236 239 243 240 249 252 255 252 227 232 238 238 244 245 242 243 241 242 244 244 245 246
338 335 333 330 328 326 322 321 320 317 311 304 298 290 280 273 270 270 262 254 252 248 251 255 256 260 258 254 254 249 243 244 248 247 245 242 243 248 245 241 247 244 244 248 244 242 238 238 242 245 245 246 246 243 240 243 245 249 248 247 251 252 254 253 246 241 232 235 244 244 248 249 251 251 241 242 244 242 245 246 246 244 242 243 244 246 247 247
334 330 329 328 328 326 323 322 319 317 313 307 302 295 285 273 268 269 258 251 246 245 265 255 239 257 265 248 248 248 248 251 250 248 244 240 242 245 242 242 247 243 242 244 239 237 238 240 243 246 245 243 244 239 239 249 257 266 267 258 259 254 247 251 251 240 235 239 245 250 254 253 251 252 250 248 246 246 245 247 249 246 245 245 246 249 250 249
329 326 323 322 324 323 322 321 318 318 312 307 304 295 290 282 273 271 255 246 244 249 272 254 229 251 269 249 246 252 254 253 250 248 244 240 240 242 242 242 245 243 244 242 238 240 242 245 246 244 246 251 254 245 243 257 264 268 268 261 267 261 247 252 248 238 244 250 250 252 255 257 256 255 255 252 248 247 246 247 249 247 247 247 248 249 249 251
325 322 319 318 319 318 318 317 316 317 311 307 304 290 297 306 289 282 270 256 250 251 262 254 241 256 265 253 250 256 256 252 249 246 242 239 239 243 240 239 242 241 244 243 241 248 247 249 250 247 248 254 260 254 251 260 262 263 265 261 263 262 260 262 253 247 256 258 257 259 260 262 262 259 257 253 250 249 247 247 248 247 248 249 249 248 247 250
320 318 316 313 313 314 314 313 312 311 306 303 296 285 298 311 292 283 283 272 259 252 256 256 254 256 254 256 261 261 257 252 247 240 239 241 239 241 237 236 243 242 243 242 243 250 249 251 252 250 252 251 252 256 258 262 261 262 264 260 259 262 266 265 254 251 257 259 260 264 265 266 265 262 258 253 252 252 248 246 248 247 249 251 249 248 249 249
317 315 313 310 310 310 310 309 307 306 302 294 290 291 302 305 292 283 278 274 266 254 254 253 253 251 248 254 258 253 251 253 250 236 236 244 240 240 240 240 245 245 244 242 242 249 252 255 253 247 251 251 252 256 258 261 261 261 260 259 259 259 263 265 258 254 259 265 268 269 270 269 267 263 258 253 251 252 249 244 246 248 250 251 249 249 249 250
318 315 313 309 307 307 307 308 303 298 294 290 293 301 307 303 299 295 279 272 267 256 259 258 254 252 249 254 254 247 247 257 262 241 232 243 243 241 245 247 250 249 248 246 244 251 257 258 250 247 253 255 256 257 257 260 261 261 257 256 260 259 261 266 264 262 266 268 268 269 272 270 266 263 257 253 250 251 250 246 245 246 247 248 250 251 249 249
322 318 316 312 309 307 306 305 297 290 288 290 298 307 307 304 305 302 283 275 266 256 264 261 255 255 253 258 254 250 253 257 260 245 235 244 246 245 250 251 251 251 250 249 249 254 258 255 247 251 257 256 257 257 255 256 261 263 258 255 257 259 262 265 266 270 271 271 266 260 267 271 266 261 256 253 251 249 250 249 247 245 244 246 248 249 249 248
325 321 320 316 314 311 308 307 305 302 296 295 306 308 304 303 305 297 283 279 265 254 263 252 249 257 259 260 250 251 263 255 246 247 250 250 248 252 257 252 249 252 254 256 258 255 250 249 251 256 259 256 257 259 256 255 259 263 263 261 258 255 257 262 267 271 272 275 268 252 260 273 273 268 257 249 250 249 247 248 249 248 247 247 247 247 247 248
324 321 319 318 317 313 311 314 315 314 307 305 312 309 303 300 300 292 282 281 263 252 256 247 254 261 260 261 245 247 267 255 241 252 260 255 248 250 255 252 249 252 255 257 260 257 249 250 254 257 259 258 260 261 258 255 258 261 264 267 264 257 258 262 265 267 267 273 266 250 257 270 271 272 265 255 252 249 245 244 247 251 251 249 247 247 247 248
322 320 318 317 315 311 312 312 312 317 319 318 316 312 307 300 295 288 279 279 268 258 256 256 269 266 260 261 249 251 265 259 253 256 255 255 249 245 250 253 253 255 257 254 253 256 258 257 257 257 259 260 261 261 256 252 255 259 260 263 263 260 263 264 262 263 264 266 263 255 256 265 266 267 267 262 254 247 244 245 248 251 253 251 247 247 248 247
321 320 317 317 315 312 313 310 309 318 323 319 316 312 309 299 292 286 276 274 273 264 261 266 271 263 257 256 251 255 260 255 256 257 253 257 254 248 254 259 257 260 264 260 252 254 260 259 257 257 258 258 258 258 255 250 251 259 263 265 264 262 265 265 261 263 263 260 262 260 259 263 267 265 262 262 256 246 246 249 250 249 250 251 247 247 247 245
320 320 319 317 317 317 314 308 308 318 322 318 315 312 305 297 292 287 276 276 280 268 265 271 270 261 253 253 252 254 257 252 253 257 257 260 254 248 256 262 260 262 264 261 256 257 260 259 258 259 259 256 254 257 262 254 248 257 264 264 264 261 261 263 261 263 264 263 262 261 261 263 268 267 261 267 261 245 246 253 250 246 245 246 245 244 246 246
322 321 322 317 317 319 315 314 318 323 324 320 318 312 304 299 292 286 280 281 278 271 274 273 270 267 259 260 259 254 258 257 251 252 256 258 254 250 256 257 255 261 262 259 257 257 256 256 257 259 259 257 254 258 263 255 250 257 260 261 265 262 258 258 259 258 261 265 264 263 262 258 261 263 256 270 269 245 248 255 248 244 243 242 245 246 247 249
324 322 323 318 317 319 318 322 326 323 322 321 319 312 307 303 290 284 289 288 275 274 288 280 271 275 273 274 271 259 261 262 254 253 254 255 254 252 255 254 250 257 260 259 260 259 256 255 255 255 254 253 254 256 257 252 251 256 256 258 263 263 260 257 257 257 259 263 264 266 266 258 259 260 253 262 269 251 251 254 254 257 249 242 246 248 250 252
328 327 326 323 320 321 323 325 326 324 324 321 316 311 310 306 296 293 295 296 290 288 292 282 271 276 278 276 273 262 259 262 259 258 257 258 260 255 253 254 252 254 260 265 268 265 261 256 252 254 251 247 248 252 254 252 249 249 252 255 258 260 263 261 259 260 261 263 265 268 269 261 260 261 256 258 263 260 256 253 259 269 258 247 248 250 251 252
330 329 329 328 326 324 325 326 325 327 325 319 311 309 306 299 297 300 299 302 309 300 291 286 278 277 276 272 272 270 264 260 256 255 257 261 264 261 257 258 257 257 262 268 268 264 264 259 252 254 253 245 243 247 255 260 256 252 253 254 257 260 264 265 265 264 266 271 271 267 264 258 258 260 258 258 261 264 263 255 256 266 263 253 250 251 251 251
328 328 327 326 325 322 322 321 321 323 322 317 310 303 299 298 300 305 308 303 305 306 300 297 289 280 277 272 270 269 266 262 260 258 259 262 262 261 260 259 259 260 262 265 264 262 262 261 256 256 255 248 246 250 255 260 263 261 258 255 255 260 263 266 268 268 272 274 270 264 261 260 261 261 261 264 263 264 267 263 257 261 263 257 254 254 254 253
323 323 319 320 324 323 320 317 317 317 314 311 308 301 299 305 306 306 311 303 299 304 301 295 290 281 278 275 267 260 257 264 271 268 263 263 263 262 260 258 257 255 255 258 261 263 264 263 262 263 258 250 250 255 254 256 261 264 262 258 258 259 260 264 268 269 269 269 265 263 262 264 266 264 261 264 264 262 265 266 260 258 258 256 256 257 257 257
312 309 306 314 324 325 320 317 317 313 309 306 303 299 297 303 307 305 311 310 302 301 298 292 291 287 284 280 270 265 262 265 271 270 266 265 266 265 263 260 257 253 253 259 262 264 267 267 265 265 263 255 254 257 257 258 261 263 262 264 266 265 262 262 265 266 264 264 265 263 263 265 265 266 265 263 262 263 266 265 261 258 255 254 254 256 258 259
309 304 298 307 321 323 318 316 314 308 306 303 297 293 292 296 305 307 311 313 305 300 295 289 288 289 286 281 275 274 273 267 267 269 269 268 269 270 269 264 259 257 260 265 266 264 267 269 266 262 262 262 258 259 260 259 259 261 264 266 267 266 265 262 261 264 264 263 265 264 265 265 263 265 268 265 264 269 271 267 262 260 259 257 254 254 255 256
306 303 297 304 316 319 316 314 311 305 303 301 296 296 295 295 301 306 309 311 307 301 295 289 287 287 283 280 278 277 275 273 273 272 272 271 270 269 270 267 260 260 264 266 266 266 267 269 268 262 262 265 263 260 262 262 260 262 263 263 263 264 266 265 262 263 264 265 267 267 265 264 263 266 268 269 271 273 272 268 264 264 263 260 256 254 254 255
302 301 301 307 314 316 314 310 306 303 300 296 295 296 297 297 302 307 306 307 306 300 293 290 289 285 281 280 278 276 275 274 273 271 271 273 272 268 268 268 262 261 263 263 266 269 267 266 267 266 264 264 261 259 261 263 263 263 262 262 263 263 266 268 265 262 262 265 267 268 266 264 264 266 270 275 278 277 273 270 268 267 266 264 261 259 256 255
303 301 302 308 312 313 310 306 303 302 299 297 296 296 297 298 300 303 302 300 300 296 291 289 286 283 281 279 278 276 275 274 272 271 269 270 271 269 268 272 269 266 266 265 267 270 268 267 269 270 267 263 262 263 265 266 266 265 263 264 264 264 266 267 265 263 265 266 265 266 268 267 265 267 272 277 280 278 275 274 272 273 272 270 271 269 262 255
301 301 302 308 312 311 307 304 301 298 297 298 296 295 299 299 297 299 299 296 296 294 291 288 285 282 280 278 277 276 276 274 272 272 271 271 273 271 267 271 274 270 268 268 269 270 270 269 271 271 268 267 267 268 267 267 268 266 264 265 265 265 264 263 263 266 268 267 265 264 265 264 265 271 273 274 276 277 276 274 273 274 274 274 276 276 270 259
303 303 302 304 309 309 305 303 301 298 296 297 296 295 298 298 295 296 297 295 295 294 292 289 287 283 280 279 279 277 277 275 273 273 273 272 273 269 266 271 275 272 270 268 268 272 273 270 269 271 271 270 270 268 266 265 265 265 264 264 265 264 265 265 267 269 268 266 265 265 264 263 266 271 274 275 276 276 275 274 273 273 273 272 273 273 269 266
303 302 299 301 308 309 304 302 302 299 297 297 297 296 297 295 293 292 293 295 296 294 291 288 286 283 280 279 279 277 277 276 274 273 273 271 268 267 268 272 274 272 269 268 269 274 274 270 270 272 273 273 271 269 267 265 264 265 265 266 267 268 269 269 269 269 266 265 265 265 264 265 267 270 273 276 278 276 274 274 274 274 273 272 272 270 265 266
303 299 297 302 308 307 301 299 300 297 297 297 297 296 296 295 292 289 289 292 293 290 288 285 284 283 281 279 278 277 275 275 274 274 272 270 268 269 269 269 272 271 268 269 272 272 271 269 270 271 270 271 270 268 271 275 274 270 268 268 269 269 269 270 269 267 265 266 267 266 267 269 270 271 273 275 276 276 275 275 275 275 274 274 273 270 265 265
304 298 297 303 306 303 296 297 298 296 298 299 296 296 296 295 294 290 288 291 291 288 285 284 284 282 280 279 279 277 275 274 274 274 271 269 269 269 267 267 271 270 265 269 274 271 269 268 268 267 267 268 270 271 276 279 276 271 270 270 269 268 268 268 268 266 267 270 269 266 269 273 273 273 274 274 275 276 276 277 277 276 274 274 273 271 268 267
302 299 299 303 304 300 297 298 298 297 298 297 295 295 294 293 294 291 287 290 291 288 286 284 282 281 280 279 278 278 278 275 274 274 273 271 270 269 267 269 272 269 265 270 273 271 268 267 267 267 267 268 271 273 275 276 273 271 271 270 269 269 268 268 267 268 270 272 269 268 271 273 274 274 274 274 275 276 276 277 277 276 274 273 273 272 270 268
302 300 300 302 300 297 297 298 299 297 296 294 292 292 292 291 292 289 287 288 288 287 287 285 282 281 280 279 277 277 277 277 275 274 273 272 272 271 270 270 271 272 271 269 269 270 269 268 268 268 268 269 270 272 273 273 271 271 270 269 269 269 268 268 268 269 270 269 270 272 273 273 273 274 274 275 276 277 277 277 277 276 274 273 273 272 270 269
303 300 300 301 299 296 294 295 297 297 295 293 291 291 291 291 289 288 288 288 285 284 287 287 284 282 280 279 278 276 276 278 277 275 274 274 273 273 273 272 271 273 273 269 268 270 269 269 269 268 269 271 271 272 273 273 273 272 271 269 269 269 269 269 269 269 270 270 271 273 274 273 273 273 275 276 277 277 278 277 276 275 274 273 272 272 270 269
303 300 299 300 298 296 294 292 293 295 294 292 289 289 289 287 288 290 289 289 288 286 286 286 284 283 281 279 277 276 277 280 280 278 278 277 274 272 273 273 272 271 270 270 271 269 266 268 270 270 272 273 272 273 273 272 273 272 270 269 269 271 271 271 271 271 271 271 272 273 273 273 274 275 276 277 277 277 277 276 275 275 274 274 273 272 271 270
301 299 298 298 297 297 296 293 292 292 293 292 289 289 290 289 291 293 290 289 289 288 286 286 286 285 284 281 278 276 277 281 282 281 279 276 274 273 272 272 272 271 270 271 271 268 266 269 271 272 273 273 274 275 274 274 274 272 270 270 270 271 272 271 271 271 271 272 273 273 273 274 276 278 278 278 278 277 276 277 277 276 276 277 276 275 274 273
303 301 299 298 296 296 296 294 292 291 291 293 292 290 292 293 293 293 290 288 287 285 285 286 285 284 282 280 278 276 278 281 283 282 279 275 273 272 272 272 272 272 272 271 270 268 267 269 270 271 272 274 276 276 277 279 276 272 272 274 273 271 271 271 270 270 270 272 273 273 274 276 278 279 278 278 277 277 277 278 278 278 278 278 278 277 277 276